FW6968 Weather Reports


time (UTC)temp
F
wind
direction
speed
knots
gust
knots
rain 1hr
in
rain 24hr
in
rain mn
in
humidity
%
barometer
mb
20260504215015 76 180 2.6 12.2 0.00 0.00 0.00 35 1009.6
20260504214516 76 275 3.5 13.0 0.00 0.00 0.00 36 1009.7
20260504214015 76 227 2.6 13.0 0.00 0.00 0.00 35 1009.6
20260504213515 76 223 5.2 7.8 0.00 0.00 0.00 35 1009.5
20260504213015 76 132 1.7 7.8 0.00 0.00 0.00 35 1009.5
20260504212515 76 157 1.7 8.7 0.00 0.00 0.00 35 1009.5
20260504212016 76 220 1.7 15.6 0.00 0.00 0.00 34 1009.5
20260504211514 76 206 5.2 10.4 0.00 0.00 0.00 35 1009.6
20260504211014 76 240 0.9 6.1 0.00 0.00 0.00 35 1009.4
20260504210514 76 166 3.5 5.2 0.00 0.00 0.00 34 1009.5
20260504210018 76 170 0.9 11.3 0.00 0.00 0.00 34 1009.5
20260504205514 77 209 3.5 11.3 0.00 0.00 0.00 33 1009.4
20260504205013 76 227 4.3 10.4 0.00 0.00 0.00 33 1009.5
20260504204512 76 139 1.7 9.6 0.00 0.00 0.00 33 1009.5
20260504204012 76 180 2.6 9.6 0.00 0.00 0.00 33 1009.6
20260504203513 77 219 2.6 7.8 0.00 0.00 0.00 34 1009.7
20260504203010 77 191 1.7 7.0 0.00 0.00 0.00 34 1009.7
20260504202510 77 234 2.6 7.0 0.00 0.00 0.00 33 1009.9
20260504202008 76 202 0.9 9.6 0.00 0.00 0.00 35 1010.0
20260504201507 76 248 1.7 7.8 0.00 0.00 0.00 34 1009.9
20260504201007 76 162 3.5 7.8 0.00 0.00 0.00 33 1010.0
20260504200506 76 191 2.6 9.6 0.00 0.00 0.00 33 1010.1
20260504200004 76 216 0.9 10.4 0.00 0.00 0.00 35 1010.3
20260504195504 77 272 6.1 10.4 0.00 0.00 0.00 33 1010.3
20260504195001 76 205 0.9 13.0 0.00 0.00 0.00 34 1010.3
20260504194606 76 240 3.5 13.0 0.00 0.00 0.00 33 1010.5
20260504194059 76 229 5.2 11.3 0.00 0.00 0.00 34 1010.6
20260504193601 76 262 5.2 11.3 0.00 0.00 0.00 35 1010.5
20260504193100 76 229 2.6 8.7 0.00 0.00 0.00 34 1010.6
20260504192556 76 251 0.9 9.6 0.00 0.00 0.00 36 1010.6
20260504192055 76 232 3.5 9.6 0.00 0.00 0.00 34 1010.8
20260504191611 76 248 2.6 9.6 0.00 0.00 0.00 33 1010.9
20260504191054 75 231 1.7 8.7 0.00 0.00 0.00 33 1011.0
20260504190556 76 256 3.5 9.6 0.00 0.00 0.00 34 1011.1
20260504190053 75 225 2.6 8.7 0.00 0.00 0.00 36 1011.2
20260504185552 75 184 2.6 6.1 0.00 0.00 0.00 35 1011.3
20260504185052 75 150 0.9 7.0 0.00 0.00 0.00 35 1011.4
20260504184550 76 182 0.9 8.7 0.00 0.00 0.00 33 1011.5
20260504184049 76 145 4.3 8.7 0.00 0.00 0.00 34 1011.6
20260504183548 76 257 2.6 7.0 0.00 0.00 0.00 35 1011.7
20260504183046 75 237 0.9 7.8 0.00 0.00 0.00 36 1011.7
20260504182548 75 240 1.7 7.8 0.00 0.00 0.00 34 1011.7
20260504182046 75 196 0.0 12.2 0.00 0.00 0.00 35 1011.8
20260504181550 75 292 2.6 12.2 0.00 0.00 0.00 36 1012.0
20260504181044 75 297 4.3 9.6 0.00 0.00 0.00 35 1012.1
20260504180543 75 236 2.6 10.4 0.00 0.00 0.00 36 1012.2
20260504180043 75 269 5.2 11.3 0.00 0.00 0.00 36 1012.3
20260504175543 74 160 2.6 7.0 0.00 0.00 0.00 35 1012.4
20260504175041 75 260 1.7 9.6 0.00 0.00 0.00 38 1012.4
20260504174540 74 223 3.5 9.6 0.00 0.00 0.00 36 1012.6
20260504174039 74 246 1.7 7.0 0.00 0.00 0.00 39 1012.5
20260504173538 73 223 2.6 13.9 0.00 0.00 0.00 38 1012.6
20260504173038 73 223 4.3 13.9 0.00 0.00 0.00 35 1012.8
20260504172541 73 246 3.5 7.0 0.00 0.00 0.00 36 1012.9
20260504172037 73 235 0.9 7.0 0.00 0.00 0.00 36 1012.8
20260504171545 73 262 1.7 7.8 0.00 0.00 0.00 36 1012.8
20260504171035 73 260 2.6 9.6 0.00 0.00 0.00 37 1013.0
20260504170535 73 248 4.3 9.6 0.00 0.00 0.00 35 1013.2
20260504151016 69 157 2.6 8.7 0.00 0.00 0.00 36 1014.5
20260504150516 69 253 1.7 6.1 0.00 0.00 0.00 40 1014.5
20260504141003 65 211 0.9 6.1 0.00 0.00 0.00 42 1014.6
20260504140503 65 209 2.6 6.1 0.00 0.00 0.00 42 1014.6
20260504130545 57 253 1.7 4.3 0.00 0.00 0.00 54 1015.0
20260504110526 49 247 0.0 0.9 0.00 0.00 0.00 66 1015.5
20260504100520 49 247 0.0 0.0 0.00 0.00 0.00 63 1015.3
20260504081515 50 247 0.0 0.9 0.00 0.00 0.00 59 1015.8
20260504081017 50 247 0.0 0.9 0.00 0.00 0.00 59 1015.8
20260504080515 50 247 0.0 1.7 0.00 0.00 0.00 59 1015.7
20260504050600 50 247 0.0 0.0 0.00 0.00 0.00 52 1016.4
20260504045602 51 247 0.0 0.0 0.00 0.00 0.00 51 1016.3
20260504045059 51 247 0.0 0.0 0.00 0.00 0.00 50 1016.3
20260504044619 51 247 0.0 0.0 0.00 0.00 0.00 51 1016.4
20260504044057 51 247 0.0 0.0 0.00 0.00 0.00 50 1016.3
20260504043556 51 247 0.0 0.0 0.00 0.00 0.00 50 1016.3
20260504043056 51 247 0.0 0.0 0.00 0.00 0.00 50 1016.3
20260504042556 51 247 0.0 0.0 0.00 0.00 0.00 50 1016.2
20260504042054 51 247 0.0 0.9 0.00 0.00 0.00 49 1016.2
20260504041554 51 247 0.0 0.9 0.00 0.00 0.00 48 1016.2
20260504041054 52 247 0.0 0.0 0.00 0.00 0.00 48 1016.2
20260504040554 52 247 0.0 0.0 0.00 0.00 0.00 48 1016.2
20260504040109 52 247 0.0 0.0 0.00 0.00 0.00 48 1016.1
20260504035557 51 247 0.0 1.7 0.00 0.00 0.00 48 1016.2
20260504035052 51 247 0.0 1.7 0.00 0.00 0.00 48 1016.2
20260504034555 51 247 0.0 0.9 0.00 0.00 0.00 48 1016.3
20260504034051 51 247 0.0 0.9 0.00 0.00 0.00 48 1016.3
20260504033553 51 247 0.0 0.9 0.00 0.00 0.00 48 1016.3
20260504033053 51 247 0.0 0.0 0.00 0.00 0.00 48 1016.3
20260504032551 51 247 0.0 1.7 0.00 0.00 0.00 49 1016.2
20260504032051 51 247 0.0 1.7 0.00 0.00 0.00 49 1016.2
20260504031551 51 247 0.0 0.9 0.00 0.00 0.00 50 1016.1
20260504031050 51 247 0.0 0.9 0.00 0.00 0.00 50 1016.0
20260504030550 50 247 0.0 0.9 0.00 0.00 0.00 51 1016.1
20260504030050 50 247 0.0 0.9 0.00 0.00 0.00 53 1016.1
20260504025552 50 247 0.0 0.9 0.00 0.00 0.00 53 1016.1
20260504025050 50 247 0.0 1.7 0.00 0.00 0.00 54 1016.0
20260504024550 50 247 0.0 0.9 0.00 0.00 0.00 55 1015.9
20260504024049 50 247 0.0 0.9 0.00 0.00 0.00 57 1015.9
20260504023549 50 247 0.0 0.0 0.00 0.00 0.00 58 1015.8
20260504023049 50 247 0.0 0.0 0.00 0.00 0.00 58 1015.8
20260504022550 50 247 0.0 0.0 0.00 0.00 0.00 59 1015.8
20260504022048 50 247 0.0 0.0 0.00 0.00 0.00 58 1015.8
20260504021550 50 247 0.0 0.0 0.00 0.00 0.00 57 1015.7
20260504021051 51 247 0.0 0.0 0.00 0.00 0.00 57 1015.7
20260504020551 51 247 0.0 0.0 0.00 0.00 0.00 56 1015.7
20260504020048 51 247 0.0 0.0 0.00 0.00 0.00 54 1015.6
20260504015548 51 247 0.0 0.0 0.00 0.00 0.00 54 1015.6
20260504015048 52 247 0.0 0.0 0.00 0.00 0.00 53 1015.5
20260504014548 52 247 0.0 0.0 0.00 0.00 0.00 51 1015.5
20260504014047 52 247 0.0 0.0 0.00 0.00 0.00 50 1015.5
20260504013547 53 247 0.0 0.0 0.00 0.00 0.00 51 1015.4
20260504013056 53 247 0.0 0.0 0.00 0.00 0.00 51 1015.3
20260504012547 53 247 0.0 0.0 0.00 0.00 0.00 49 1015.4
20260504012047 53 247 0.0 0.0 0.00 0.00 0.00 49 1015.3
20260504011547 53 247 0.0 0.0 0.00 0.00 0.00 49 1015.4
20260504011047 53 247 0.0 0.9 0.00 0.00 0.00 48 1015.4
20260504010546 54 247 0.0 0.9 0.00 0.00 0.00 47 1015.3
20260504010056 55 247 0.0 0.0 0.00 0.00 0.00 44 1015.3
20260504005546 55 247 0.0 0.0 0.00 0.00 0.00 43 1015.3
20260504005046 56 247 0.0 0.0 0.00 0.00 0.00 41 1015.3
20260504004552 56 247 0.0 0.0 0.00 0.00 0.00 40 1015.1
20260504004048 57 247 0.0 0.0 0.00 0.00 0.00 38 1015.1
20260504003544 57 247 0.0 0.0 0.00 0.00 0.00 38 1015.1
20260504003046 57 247 0.0 0.0 0.00 0.00 0.00 38 1015.1
20260504002544 58 247 0.0 0.0 0.00 0.00 0.00 37 1015.1
20260504002045 58 247 0.0 0.0 0.00 0.00 0.00 37 1015.1
20260504001546 58 247 0.0 0.9 0.00 0.00 0.00 36 1015.0
20260504001044 59 247 0.0 0.9 0.00 0.00 0.00 35 1015.0
20260504000544 59 247 0.0 0.0 0.00 0.00 0.00 35 1014.9
20260504000044 59 247 0.0 2.6 0.00 0.00 0.00 35 1014.8
20260503235543 60 247 0.0 3.5 0.00 0.00 0.00 34 1014.8
20260503235043 60 307 0.0 3.5 0.00 0.00 0.00 34 1014.8
20260503234543 60 252 0.0 0.9 0.00 0.00 0.00 34 1014.8
20260503234043 60 252 0.0 6.1 0.00 0.00 0.00 34 1014.7
20260503233543 60 252 1.7 6.1 0.00 0.00 0.00 32 1014.7
20260503233046 60 317 0.9 7.0 0.00 0.00 0.00 33 1014.6
20260503232542 61 227 2.6 7.0 0.00 0.00 0.00 32 1014.7
20260503232042 61 248 0.9 4.3 0.00 0.00 0.00 33 1014.6
20260503231542 61 327 0.9 7.0 0.00 0.00 0.00 34 1014.5
20260503231044 61 273 0.9 7.0 0.00 0.00 0.00 32 1014.5
20260503230545 61 234 1.7 7.0 0.00 0.00 0.00 31 1014.4
20260503230041 61 238 0.0 6.1 0.00 0.00 0.00 33 1014.4
20260503225540 61 343 0.9 7.0 0.00 0.00 0.00 32 1014.5
20260503225040 61 245 3.5 7.0 0.00 0.00 0.00 32 1014.5
20260503224540 61 244 0.9 8.7 0.00 0.00 0.00 31 1014.5
20260503224041 62 230 0.9 7.0 0.00 0.00 0.00 31 1014.5
20260503223540 62 236 1.7 7.8 0.00 0.00 0.00 32 1014.5
20260503223040 62 264 1.7 7.8 0.00 0.00 0.00 31 1014.6
20260503222538 62 301 2.6 8.7 0.00 0.00 0.00 31 1014.6
20260503222038 62 260 2.6 8.7 0.00 0.00 0.00 31 1014.5
20260503221538 62 247 2.6 11.3 0.00 0.00 0.00 31 1014.5
20260503221038 62 309 1.7 11.3 0.00 0.00 0.00 31 1014.6
20260503220538 62 242 4.3 11.3 0.00 0.00 0.00 31 1014.6
20260503220038 62 288 1.7 8.7 0.00 0.00 0.00 30 1014.5
20260503215537 62 239 0.9 8.7 0.00 0.00 0.00 32 1014.6